Time,TemperatureF,DewpointF,PressureIn,WindDirection,WindDirectionDegrees,WindSpeedMPH,WindSpeedGustMPH,Humidity,HourlyPrecipIn,Conditions,Clouds,dailyrainin,SoftwareType,DateUTC
2014-02-04 00:22:00,16.0,13.0,29.86,SE,140,2.0,6.0,89,0.00,,,-99.99,,2014-02-04 07:22:00,
2014-02-04 00:42:00,16.0,14.0,29.86,SE,126,2.0,6.0,90,0.00,,,-99.99,,2014-02-04 07:42:00,
2014-02-04 00:52:00,16.0,14.0,29.85,ESE,123,3.0,7.0,90,0.00,,,-99.99,,2014-02-04 07:52:00,
2014-02-04 01:12:00,16.0,14.0,29.85,ESE,116,4.0,6.0,91,0.00,,,-99.99,,2014-02-04 08:12:00,
2014-02-04 01:22:00,16.0,14.0,29.84,SE,125,3.0,7.0,91,0.00,,,-99.99,,2014-02-04 08:22:00,
2014-02-04 01:42:00,14.0,12.0,29.85,ESE,114,6.0,13.0,90,0.00,,,-99.99,,2014-02-04 08:42:00,
2014-02-04 01:52:00,14.0,12.0,29.85,ESE,114,6.0,13.0,90,0.00,,,-99.99,,2014-02-04 08:52:00,
2014-02-04 02:12:00,12.0,9.0,29.85,SE,132,5.0,10.0,89,0.00,,,-99.99,,2014-02-04 09:12:00,
2014-02-04 02:23:00,11.0,9.0,29.85,SE,129,4.0,12.0,90,0.00,,,-99.99,,2014-02-04 09:23:00,
2014-02-04 02:43:00,10.0,7.0,29.84,SE,128,4.0,9.0,89,0.00,,,-99.99,,2014-02-04 09:43:00,
2014-02-04 02:54:00,10.0,7.0,29.84,SE,134,5.0,8.0,89,0.00,,,-99.99,,2014-02-04 09:54:00,
2014-02-04 03:12:00,10.0,7.0,29.84,ESE,117,4.0,9.0,89,0.00,,,-99.99,,2014-02-04 10:12:00,
2014-02-04 03:23:00,10.0,7.0,29.84,ESE,119,3.0,-999.0,89,-99.99,,,-99.99,,2014-02-04 10:23:00,
2014-02-04 03:42:00,10.0,7.0,29.82,SE,130,2.0,-999.0,89,-99.99,,,-99.99,,2014-02-04 10:42:00,
2014-02-04 03:53:00,10.0,7.0,29.82,East,101,2.0,-999.0,89,-99.99,,,-99.99,,2014-02-04 10:53:00,
2014-02-04 04:12:00,10.0,7.0,29.83,SE,132,2.0,-999.0,89,-99.99,,,-99.99,,2014-02-04 11:12:00,
2014-02-04 04:22:00,10.0,7.0,29.84,SE,136,3.0,-999.0,89,-99.99,,,-99.99,,2014-02-04 11:22:00,
2014-02-04 04:42:00,9.0,6.0,29.84,ESE,112,3.0,-999.0,89,-99.99,,,-99.99,,2014-02-04 11:42:00,
2014-02-04 04:52:00,9.0,6.0,29.85,ESE,115,4.0,-999.0,89,-99.99,,,-99.99,,2014-02-04 11:52:00,
2014-02-04 05:02:00,9.0,6.0,29.85,ESE,115,4.0,-999.0,89,-99.99,,,-99.99,,2014-02-04 12:02:00,
2014-02-04 05:12:00,9.0,6.0,29.85,ESE,115,4.0,-999.0,89,-99.99,,,-99.99,,2014-02-04 12:12:00,
2014-02-04 05:22:00,9.0,6.0,29.85,ESE,115,3.0,-999.0,88,-99.99,,,-99.99,,2014-02-04 12:22:00,
2014-02-04 05:42:00,9.0,6.0,29.85,SE,139,3.0,-999.0,89,-99.99,,,-99.99,,2014-02-04 12:42:00,
2014-02-04 05:52:00,8.0,5.0,29.85,SSE,153,3.0,-999.0,88,-99.99,,,-99.99,,2014-02-04 12:52:00,
2014-02-04 06:11:00,8.0,5.0,29.85,ESE,120,3.0,-999.0,88,-99.99,,,-99.99,,2014-02-04 13:11:00,
2014-02-04 06:22:00,8.0,5.0,29.85,ESE,121,1.0,-999.0,88,-99.99,,,-99.99,,2014-02-04 13:22:00,
2014-02-04 06:42:00,8.0,5.0,29.85,SE,135,1.0,-999.0,88,-99.99,,,-99.99,,2014-02-04 13:42:00,
2014-02-04 06:52:00,7.0,4.0,29.86,SE,125,1.0,-999.0,88,-99.99,,,-99.99,,2014-02-04 13:52:00,
2014-02-04 07:12:00,7.0,4.0,29.86,ESE,121,0.0,-999.0,87,-99.99,,,-99.99,,2014-02-04 14:12:00,
2014-02-04 07:22:00,7.0,4.0,29.86,ESE,121,0.0,-999.0,87,-99.99,,,-99.99,,2014-02-04 14:22:00,
2014-02-04 07:32:00,7.0,4.0,29.86,ESE,121,0.0,-999.0,87,-99.99,,,-99.99,,2014-02-04 14:32:00,
2014-02-04 07:42:00,7.0,4.0,29.86,ESE,121,0.0,-999.0,87,-99.99,,,-99.99,,2014-02-04 14:42:00,
2014-02-04 07:53:00,6.0,3.0,29.87,ESE,121,0.0,-999.0,88,-99.99,,,-99.99,,2014-02-04 14:53:00,
2014-02-04 08:11:00,7.0,4.0,29.88,ESE,121,0.0,-999.0,88,-99.99,,,-99.99,,2014-02-04 15:11:00,
2014-02-04 08:22:00,7.0,4.0,29.86,ESE,103,1.0,-999.0,88,-99.99,,,-99.99,,2014-02-04 15:22:00,
2014-02-04 08:43:00,7.0,4.0,29.86,ESE,123,2.0,-999.0,88,-99.99,,,-99.99,,2014-02-04 15:43:00,
2014-02-04 08:53:00,7.0,4.0,29.86,ESE,123,2.0,-999.0,88,-99.99,,,-99.99,,2014-02-04 15:53:00,
2014-02-04 09:13:00,7.0,4.0,29.87,ESE,103,1.0,-999.0,88,-99.99,,,-99.99,,2014-02-04 16:13:00,
2014-02-04 09:23:00,7.0,4.0,29.88,East,99,2.0,-999.0,88,-99.99,,,-99.99,,2014-02-04 16:23:00,
2014-02-04 09:34:00,7.0,4.0,29.88,East,99,2.0,-999.0,88,-99.99,,,-99.99,,2014-02-04 16:34:00,
2014-02-04 09:43:00,7.0,4.0,29.88,East,99,2.0,-999.0,88,-99.99,,,-99.99,,2014-02-04 16:43:00,
2014-02-04 09:53:00,7.0,4.0,29.88,East,99,2.0,-999.0,88,-99.99,,,-99.99,,2014-02-04 16:53:00,
2014-02-04 10:12:00,7.0,4.0,29.89,ESE,108,3.0,-999.0,88,-99.99,,,-99.99,,2014-02-04 17:12:00,
2014-02-04 10:22:00,7.0,4.0,29.89,ESE,108,3.0,-999.0,88,-99.99,,,-99.99,,2014-02-04 17:22:00,
2014-02-04 10:42:00,7.0,4.0,29.90,East,87,2.0,-999.0,88,-99.99,,,-99.99,,2014-02-04 17:42:00,
2014-02-04 10:53:00,7.0,4.0,29.90,East,87,2.0,-999.0,88,-99.99,,,-99.99,,2014-02-04 17:53:00,
2014-02-04 11:12:00,6.0,3.0,29.90,ESE,105,2.0,-999.0,87,-99.99,,,-99.99,,2014-02-04 18:12:00,
2014-02-04 11:22:00,6.0,3.0,29.90,East,81,2.0,-999.0,87,-99.99,,,-99.99,,2014-02-04 18:22:00,
2014-02-04 11:52:00,6.0,3.0,29.88,East,91,2.0,-999.0,87,-99.99,,,-99.99,,2014-02-04 18:52:00,
2014-02-04 12:11:00,6.0,3.0,29.88,SE,125,3.0,-999.0,87,-99.99,,,-99.99,,2014-02-04 19:11:00,
2014-02-04 12:22:00,6.0,3.0,29.88,ESE,113,2.0,-999.0,87,-99.99,,,-99.99,,2014-02-04 19:22:00,
2014-02-04 12:42:00,6.0,3.0,29.89,East,81,2.0,-999.0,87,-99.99,,,-99.99,,2014-02-04 19:42:00,
2014-02-04 12:52:00,7.0,4.0,29.89,ESE,103,2.0,-999.0,87,-99.99,,,-99.99,,2014-02-04 19:52:00,
2014-02-04 13:11:00,7.0,4.0,29.89,ESE,118,3.0,-999.0,87,-99.99,,,-99.99,,2014-02-04 20:11:00,
2014-02-04 13:22:00,8.0,5.0,29.87,ESE,104,4.0,-999.0,86,-99.99,,,-99.99,,2014-02-04 20:22:00,
2014-02-04 13:42:00,7.0,4.0,29.88,SE,128,4.0,-999.0,86,-99.99,,,-99.99,,2014-02-04 20:42:00,
2014-02-04 13:53:00,7.0,3.0,29.89,ESE,117,4.0,-999.0,85,-99.99,,,-99.99,,2014-02-04 20:53:00,
2014-02-04 14:11:00,7.0,3.0,29.89,SE,130,3.0,-999.0,85,-99.99,,,-99.99,,2014-02-04 21:11:00,
2014-02-04 14:22:00,7.0,4.0,29.90,SE,126,3.0,-999.0,86,-99.99,,,-99.99,,2014-02-04 21:22:00,
2014-02-04 14:54:00,6.0,2.0,29.91,East,80,2.0,-999.0,84,-99.99,,,-99.99,,2014-02-04 21:54:00,
2014-02-04 15:12:00,4.0,0.0,29.92,East,82,3.0,-999.0,82,-99.99,,,-99.99,,2014-02-04 22:12:00,
2014-02-04 15:23:00,3.0,-1.0,29.93,ENE,77,2.0,-999.0,84,-99.99,,,-99.99,,2014-02-04 22:23:00,
2014-02-04 15:42:00,3.0,-1.0,29.95,East,92,3.0,-999.0,83,-99.99,,,-99.99,,2014-02-04 22:42:00,
2014-02-04 15:52:00,2.0,-2.0,29.96,ENE,66,4.0,-999.0,83,-99.99,,,-99.99,,2014-02-04 22:52:00,
2014-02-04 16:02:00,2.0,-2.0,29.96,ENE,66,4.0,-999.0,83,-99.99,,,-99.99,,2014-02-04 23:02:00,
2014-02-04 16:12:00,2.0,-2.0,29.96,ENE,66,4.0,-999.0,83,-99.99,,,-99.99,,2014-02-04 23:12:00,
2014-02-04 16:22:00,1.0,-3.0,29.96,ENE,60,2.0,-999.0,82,-99.99,,,-99.99,,2014-02-04 23:22:00,
2014-02-04 16:42:00,1.0,-3.0,29.97,NE,36,1.0,-999.0,82,-99.99,,,-99.99,,2014-02-04 23:42:00,
2014-02-04 16:52:00,1.0,-3.0,29.97,NE,36,1.0,-999.0,82,-99.99,,,-99.99,,2014-02-04 23:52:00,
2014-02-04 17:11:00,0.0,-4.0,30.00,NE,49,1.0,-999.0,81,-99.99,,,-99.99,,2014-02-05 00:11:00,
2014-02-04 17:22:00,0.0,-4.0,30.00,NE,49,1.0,-999.0,81,-99.99,,,-99.99,,2014-02-05 00:22:00,
2014-02-04 17:32:00,0.0,-4.0,30.00,NE,49,1.0,-999.0,81,-99.99,,,-99.99,,2014-02-05 00:32:00,
2014-02-04 17:42:00,0.0,-4.0,30.00,NE,49,1.0,-999.0,81,-99.99,,,-99.99,,2014-02-05 00:42:00,
2014-02-04 17:52:00,-2.0,-6.0,30.01,NNE,32,1.0,-999.0,81,-99.99,,,-99.99,,2014-02-05 00:52:00,
2014-02-04 18:02:00,-2.0,-6.0,30.01,NNE,32,1.0,-999.0,81,-99.99,,,-99.99,,2014-02-05 01:02:00,
2014-02-04 18:11:00,-2.0,-6.0,30.01,NNE,32,1.0,-999.0,81,-99.99,,,-99.99,,2014-02-05 01:11:00,
2014-02-04 18:22:00,-3.0,-8.0,30.03,NW,321,1.0,-999.0,80,-99.99,,,-99.99,,2014-02-05 01:22:00,
2014-02-04 18:42:00,-3.0,-8.0,30.04,NW,321,1.0,-999.0,79,-99.99,,,-99.99,,2014-02-05 01:42:00,
2014-02-04 18:53:00,-3.0,-8.0,30.06,North,360,1.0,-999.0,79,-99.99,,,-99.99,,2014-02-05 01:53:00,
2014-02-04 19:12:00,-3.0,-8.0,30.06,NE,38,3.0,-999.0,79,-99.99,,,-99.99,,2014-02-05 02:12:00,
2014-02-04 19:22:00,-3.0,-8.0,30.04,NW,321,1.0,-999.0,78,-99.99,,,-99.99,,2014-02-05 02:22:00,
2014-02-04 19:42:00,-3.0,-8.0,30.06,NW,321,1.0,-999.0,78,-99.99,,,-99.99,,2014-02-05 02:42:00,
2014-02-04 19:53:00,-4.0,-9.0,30.06,NW,321,0.0,-999.0,79,-99.99,,,-99.99,,2014-02-05 02:53:00,
2014-02-04 20:02:00,-4.0,-9.0,30.06,NW,321,0.0,-999.0,79,-99.99,,,-99.99,,2014-02-05 03:02:00,
2014-02-04 20:22:00,-4.0,-9.0,30.08,NW,321,0.0,-999.0,80,-99.99,,,-99.99,,2014-02-05 03:22:00,
2014-02-04 20:33:00,-4.0,-9.0,30.08,NW,321,0.0,-999.0,80,-99.99,,,-99.99,,2014-02-05 03:33:00,
2014-02-04 20:44:00,-4.0,-9.0,30.08,NW,321,0.0,-999.0,80,-99.99,,,-99.99,,2014-02-05 03:44:00,
2014-02-04 20:54:00,-5.0,-9.0,30.07,NW,325,2.0,-999.0,83,-99.99,,,-99.99,,2014-02-05 03:54:00,
2014-02-04 21:13:00,-5.0,-9.0,30.09,SE,136,2.0,-999.0,84,-99.99,,,-99.99,,2014-02-05 04:13:00,
2014-02-04 21:23:00,-6.0,-10.0,30.09,SE,128,2.0,-999.0,84,-99.99,,,-99.99,,2014-02-05 04:23:00,
2014-02-04 21:53:00,-7.0,-11.0,30.11,SSE,158,2.0,-999.0,83,-99.99,,,-99.99,,2014-02-05 04:53:00,
2014-02-04 22:02:00,-7.0,-11.0,30.11,SSE,158,2.0,-999.0,83,-99.99,,,-99.99,,2014-02-05 05:02:00,
2014-02-04 22:22:00,-8.0,-12.0,30.10,SE,130,2.0,-999.0,83,-99.99,,,-99.99,,2014-02-05 05:22:00,
2014-02-04 22:43:00,-8.0,-12.0,30.11,SE,141,2.0,-999.0,83,-99.99,,,-99.99,,2014-02-05 05:43:00,
2014-02-04 22:53:00,-9.0,-13.0,30.12,SE,131,2.0,-999.0,83,-99.99,,,-99.99,,2014-02-05 05:53:00,
2014-02-04 23:12:00,-10.0,-14.0,30.12,SE,127,2.0,-999.0,82,-99.99,,,-99.99,,2014-02-05 06:12:00,
2014-02-04 23:23:00,-10.0,-14.0,30.12,SE,127,2.0,-999.0,82,-99.99,,,-99.99,,2014-02-05 06:23:00,
2014-02-04 23:42:00,-11.0,-15.0,30.12,SE,128,1.0,-999.0,82,-99.99,,,-99.99,,2014-02-05 06:42:00,
2014-02-04 23:52:00,-11.0,-15.0,30.13,SE,128,0.0,-999.0,82,-99.99,,,-99.99,,2014-02-05 06:52:00,